KK7KHO Weather Reports


Display with metric or nautical units.
time (UTC)temp
F
wind
direction
speed
MPH
gust
MPH
rain 1hr
in
rain 24hr
in
rain mn
in
humidity
%
barometer
mb
20260503185355 72 330 3.0 6.0 0.00 0.00 0.00 55 1012.7
20260503184854 71 245 4.0 8.0 0.00 0.00 0.00 56 1012.9
20260503184351 72 330 4.0 7.0 0.00 0.00 0.00 57 1012.9
20260503183847 71 343 4.0 8.0 0.00 0.00 0.00 60 1013.0
20260503183344 70 331 4.0 7.0 0.00 0.00 0.00 60 1012.9
20260503182841 70 356 2.0 4.0 0.00 0.00 0.00 61 1013.2
20260503182340 69 26 2.0 6.0 0.00 0.00 0.00 62 1013.3
20260503181837 68 274 4.0 6.0 0.00 0.00 0.00 64 1013.2
20260503181334 66 240 3.0 6.0 0.00 0.00 0.00 67 1013.4
20260503180830 68 320 3.0 3.0 0.00 0.00 0.00 64 1013.5
20260503180329 67 7 1.0 3.0 0.00 0.00 0.00 68 1013.5
20260503175824 66 283 3.0 6.0 0.00 0.00 0.00 67 1013.5
20260503175323 67 263 2.0 6.0 0.00 0.00 0.00 67 1013.6
20260503174818 68 339 3.0 7.0 0.00 0.00 0.00 65 1013.6
20260503174317 68 26 4.0 6.0 0.00 0.00 0.00 63 1013.7
20260503173817 67 4 2.0 3.0 0.00 0.00 0.00 66 1013.8
20260503173313 66 263 2.0 4.0 0.00 0.00 0.00 66 1013.8
20260503172810 66 319 1.0 3.0 0.00 0.00 0.00 67 1013.7
20260503172308 66 11 1.0 7.0 0.00 0.00 0.00 67 1013.9
20260503171803 66 350 4.0 6.0 0.00 0.00 0.00 68 1013.7
20260503171300 66 310 2.0 8.0 0.00 0.00 0.00 69 1013.7
20260503170758 66 258 4.0 8.0 0.00 0.00 0.00 66 1013.9
20260503170254 67 323 5.0 7.0 0.00 0.00 0.00 66 1013.8
20260503160217 65 17 0.0 1.0 0.00 0.00 0.00 77 1014.1
20260503150647 59 342 3.0 4.0 0.00 0.00 0.00 86 1014.3
20260503150143 59 5 2.0 6.0 0.00 0.00 0.00 85 1014.2
20260503140107 52 353 0.0 0.0 0.00 0.00 0.00 94 1014.1
20260503131036 49 38 0.0 0.0 0.00 0.00 0.00 96 1013.6
20260503130533 49 38 1.0 1.0 0.00 0.00 0.00 96 1013.7
20260503110424 51 41 0.0 0.0 0.00 0.00 0.00 91 1013.8
20260503090304 52 41 0.0 1.0 0.00 0.00 0.00 89 1013.9
20260503081237 54 35 0.0 0.0 0.00 0.00 0.00 85 1014.1
20260503080732 54 34 0.0 0.0 0.00 0.00 0.00 84 1014.0
20260503080229 55 34 0.0 0.0 0.00 0.00 0.00 83 1014.0
20260503072706 56 31 0.0 1.0 0.00 0.00 0.00 81 1014.0
20260503072203 55 40 1.0 2.0 0.00 0.00 0.00 81 1014.0
20260503071700 55 36 0.0 0.0 0.00 0.00 0.00 82 1013.9
20260503071156 55 34 0.0 0.0 0.00 0.00 0.00 82 1013.8
20260503070653 56 34 0.0 1.0 0.00 0.00 0.00 81 1013.7
20260503070152 56 34 1.0 1.0 0.00 0.00 0.00 81 1013.6
20260503060116 58 48 1.0 2.0 0.00 0.00 0.00 77 1013.8
20260503055107 58 34 1.0 1.0 0.00 0.00 0.00 78 1013.7
20260503054603 58 31 0.0 1.0 0.00 0.00 0.00 78 1013.6
20260503054100 58 33 0.0 0.0 0.00 0.00 0.00 78 1013.6
20260503053558 58 18 0.0 0.0 0.00 0.00 0.00 76 1013.5
20260503053056 58 18 0.0 0.0 0.00 0.00 0.00 78 1013.6
20260503052552 59 18 0.0 0.0 0.00 0.00 0.00 77 1013.5
20260503052048 59 18 0.0 0.0 0.00 0.00 0.00 77 1013.6
20260503051544 59 4 0.0 1.0 0.00 0.00 0.00 76 1013.3
20260503051042 59 14 0.0 0.0 0.00 0.00 0.00 75 1013.3
20260503050537 60 14 0.0 0.0 0.00 0.00 0.00 75 1013.3
20260503050035 60 13 0.0 0.0 0.00 0.00 0.00 73 1013.4
20260503045532 60 14 0.0 0.0 0.00 0.00 0.00 72 1013.3
20260503045030 61 20 0.0 1.0 0.00 0.00 0.00 70 1013.4
20260503044526 61 6 0.0 0.0 0.00 0.00 0.00 71 1013.3
20260503044024 61 5 0.0 1.0 0.00 0.00 0.00 70 1013.2
20260503043519 61 27 0.0 0.0 0.00 0.00 0.00 71 1013.2
20260503043016 61 4 0.0 0.0 0.00 0.00 0.00 71 1013.0
20260503042513 61 34 0.0 2.0 0.00 0.00 0.00 70 1013.0
20260503042009 61 13 0.0 1.0 0.00 0.00 0.00 70 1013.2
20260503041507 61 323 0.0 1.0 0.00 0.00 0.00 70 1013.0
20260503041005 62 6 1.0 1.0 0.00 0.00 0.00 69 1013.1
20260503040502 62 289 2.0 3.0 0.00 0.00 0.00 68 1013.0
20260503035959 62 0 0.0 2.0 0.00 0.00 0.00 70 1013.0
20260503035455 62 356 0.0 1.0 0.00 0.00 0.00 72 1012.8
20260503034953 61 1 0.0 1.0 0.00 0.00 0.00 75 1012.8
20260503034450 62 344 0.0 1.0 0.00 0.00 0.00 74 1012.7
20260503033947 62 338 1.0 2.0 0.00 0.00 0.00 74 1012.7
20260503033444 62 4 0.0 3.0 0.00 0.00 0.00 74 1012.5
20260503032942 62 307 2.0 3.0 0.00 0.00 0.00 74 1012.6
20260503032441 63 253 2.0 3.0 0.00 0.00 0.00 74 1012.4
20260503031938 63 352 0.0 1.0 0.00 0.00 0.00 73 1012.5
20260503031435 63 335 1.0 2.0 0.00 0.00 0.00 72 1012.3
20260503030932 64 247 1.0 3.0 0.00 0.00 0.00 71 1012.4
20260503030428 64 282 1.0 3.0 0.00 0.00 0.00 70 1012.4
20260503025925 64 7 1.0 4.0 0.00 0.00 0.00 68 1012.3
20260503025422 65 10 4.0 7.0 0.00 0.00 0.00 67 1012.2
20260503024920 65 296 1.0 2.0 0.00 0.00 0.00 68 1012.3
20260503024416 66 272 2.0 3.0 0.00 0.00 0.00 69 1012.2
20260503023914 67 245 1.0 2.0 0.00 0.00 0.00 66 1012.2
20260503023410 67 296 1.0 3.0 0.00 0.00 0.00 65 1012.2
20260503022908 68 266 3.0 3.0 0.00 0.00 0.00 61 1012.3
20260503022402 68 343 1.0 3.0 0.00 0.00 0.00 62 1012.2
20260503021859 69 1 2.0 3.0 0.00 0.00 0.00 59 1012.0
20260503021355 70 6 2.0 3.0 0.00 0.00 0.00 55 1012.2
20260503020852 70 23 2.0 4.0 0.00 0.00 0.00 55 1012.4
20260503020350 71 347 3.0 4.0 0.00 0.00 0.00 54 1012.4
20260503015846 70 8 1.0 3.0 0.00 0.00 0.00 54 1012.2
20260503015343 70 284 4.0 7.0 0.00 0.00 0.00 54 1012.5
20260503014839 71 309 1.0 9.0 0.00 0.00 0.00 53 1012.3
20260503014337 71 228 1.0 3.0 0.00 0.00 0.00 53 1012.5
20260503013834 71 357 1.0 6.0 0.00 0.00 0.00 53 1012.4
20260503013331 71 300 2.0 6.0 0.00 0.00 0.00 55 1012.5
20260503012828 71 101 2.0 6.0 0.00 0.00 0.00 56 1012.6
20260503012326 71 339 1.0 6.0 0.00 0.00 0.00 55 1012.4
20260503011823 71 99 2.0 7.0 0.00 0.00 0.00 57 1012.5
20260503011320 71 346 3.0 7.0 0.00 0.00 0.00 56 1012.7
20260503010816 72 300 2.0 4.0 0.00 0.00 0.00 55 1012.7
20260503010313 72 331 2.0 6.0 0.00 0.00 0.00 55 1012.6
20260503005810 72 349 1.0 4.0 0.00 0.00 0.00 54 1012.8
20260503005308 72 344 1.0 4.0 0.00 0.00 0.00 55 1012.7
20260503004804 73 279 2.0 7.0 0.00 0.00 0.00 53 1012.6
20260503004301 72 287 2.0 4.0 0.00 0.00 0.00 55 1012.7
20260503003759 72 245 2.0 4.0 0.00 0.00 0.00 55 1012.8
20260503003255 72 315 2.0 6.0 0.00 0.00 0.00 54 1012.6
20260503002752 73 304 5.0 8.0 0.00 0.00 0.00 55 1013.0
20260503002249 72 2 3.0 7.0 0.00 0.00 0.00 55 1012.8
20260503001745 72 298 3.0 8.0 0.00 0.00 0.00 58 1012.9
20260503001242 72 19 0.0 4.0 0.00 0.00 0.00 59 1012.9
20260503000740 73 17 2.0 8.0 0.00 0.00 0.00 58 1013.0
20260503000237 73 13 1.0 4.0 0.00 0.00 0.00 57 1013.1
20260502235733 72 6 1.0 10.0 0.00 0.00 0.00 56 1013.0
20260502235232 73 14 2.0 7.0 0.00 0.00 0.00 55 1013.1
20260502234727 73 298 4.0 6.0 0.00 0.00 0.00 55 1013.2
20260502234225 73 10 3.0 9.0 0.00 0.00 0.00 55 1013.1
20260502233721 74 350 3.0 7.0 0.00 0.00 0.00 54 1013.1
20260502233217 74 292 5.0 8.0 0.00 0.00 0.00 53 1013.4
20260502232713 74 332 1.0 4.0 0.00 0.00 0.00 54 1013.4
20260502232211 73 314 3.0 6.0 0.00 0.00 0.00 53 1013.3
20260502231707 73 263 4.0 8.0 0.00 0.00 0.00 55 1013.4
20260502231205 73 253 3.0 7.0 0.00 0.00 0.00 56 1013.5
20260502230704 74 304 6.0 9.0 0.00 0.00 0.00 54 1013.4
20260502230202 74 14 2.0 6.0 0.00 0.00 0.00 55 1013.7
20260502225657 73 316 4.0 6.0 0.00 0.00 0.00 55 1013.7
20260502225155 73 308 5.0 9.0 0.00 0.00 0.00 57 1013.6
20260502224651 73 326 2.0 4.0 0.00 0.00 0.00 57 1013.5
20260502224147 72 357 4.0 7.0 0.00 0.00 0.00 58 1013.8
20260502223645 72 280 4.0 8.0 0.00 0.00 0.00 60 1013.7
20260502223143 73 358 4.0 7.0 0.00 0.00 0.00 59 1013.9
20260502222641 73 291 2.0 3.0 0.00 0.00 0.00 61 1014.0
20260502222137 72 263 2.0 8.0 0.00 0.00 0.00 62 1013.9
20260502221632 71 354 2.0 6.0 0.00 0.00 0.00 63 1014.1
20260502221129 72 296 6.0 9.0 0.00 0.00 0.00 62 1014.3
20260502220626 72 4 3.0 7.0 0.00 0.00 0.00 64 1014.4
20260502220122 71 321 4.0 10.0 0.00 0.00 0.00 65 1014.4
20260502215619 72 294 4.0 13.0 0.00 0.00 0.00 64 1014.4
20260502215116 72 274 6.0 7.0 0.00 0.00 0.00 64 1014.6
20260502214607 71 357 2.0 10.0 0.00 0.00 0.00 66 1014.7
20260502214105 72 62 1.0 7.0 0.00 0.00 0.00 66 1014.6
20260502213602 71 238 4.0 8.0 0.00 0.00 0.00 67 1014.6
20260502213059 72 285 5.0 9.0 0.00 0.00 0.00 65 1014.6
20260502212558 71 250 1.0 6.0 0.00 0.00 0.00 67 1014.8
20260502212055 71 304 5.0 8.0 0.00 0.00 0.00 66 1014.6
20260502211550 72 23 3.0 7.0 0.00 0.00 0.00 67 1014.7
20260502211048 72 274 6.0 9.0 0.00 0.00 0.00 66 1014.9
20260502210545 70 356 2.0 6.0 0.00 0.00 0.00 69 1015.0
20260502210042 70 283 2.0 8.0 0.00 0.00 0.00 70 1014.7
20260502205538 70 14 1.0 3.0 0.00 0.00 0.00 71 1014.8
20260502205036 70 207 7.0 11.0 0.00 0.00 0.00 70 1015.0
20260502204532 70 358 1.0 6.0 0.00 0.00 0.00 70 1015.1
20260502204030 69 258 5.0 11.0 0.00 0.00 0.00 71 1015.0
20260502203527 69 293 1.0 10.0 0.00 0.00 0.00 71 1014.9
20260502203024 69 273 3.0 9.0 0.00 0.00 0.00 71 1014.9
20260502202520 69 275 3.0 11.0 0.00 0.00 0.00 70 1015.2
20260502202019 67 277 2.0 4.0 0.00 0.00 0.00 72 1015.1
20260502201514 68 359 2.0 4.0 0.00 0.00 0.00 71 1015.3
20260502201011 68 288 5.0 7.0 0.00 0.00 0.00 70 1015.4
20260502200507 68 339 2.0 8.0 0.00 0.00 0.00 70 1015.4
20260502200005 68 291 6.0 8.0 0.00 0.00 0.00 70 1015.5
20260502195502 68 154 6.0 10.0 0.00 0.00 0.00 71 1015.5
20260502194957 68 105 1.0 8.0 0.00 0.00 0.00 73 1015.7
20260502194455 67 353 0.0 6.0 0.00 0.00 0.00 74 1016.0
20260502193950 68 307 4.0 6.0 0.00 0.00 0.00 72 1015.8
20260502193448 67 263 3.0 9.0 0.00 0.00 0.00 73 1015.8
20260502192943 67 268 4.0 7.0 0.00 0.00 0.00 72 1015.9
20260502192440 66 352 2.0 6.0 0.00 0.00 0.00 72 1016.0
20260502191937 67 208 3.0 8.0 0.00 0.00 0.00 72 1015.8
20260502191435 65 348 2.0 4.0 0.00 0.00 0.00 74 1015.9
20260502190932 65 262 4.0 8.0 0.00 0.00 0.00 74 1016.0
20260502190429 65 269 3.0 8.0 0.00 0.00 0.00 74 1016.1
20260502185926 65 344 2.0 9.0 0.00 0.00 0.00 76 1016.3
20260502185421 65 229 4.0 6.0 0.00 0.00 0.00 76 1016.3